User: anonymous   Login
Location: Newark
(48.1500°N, 2.9667°W)
Time: 18:03:44
(UTC+00:00)
Language:

Transit 2A - Orbit

View from above orbital plane
View from above orbital plane
View from above satellite
View from above satellite

Ground track
Ground track

The orbit data is extracted from the following two-line orbital elements,

1    45U 60007A   20027.13450198 -.00000068  00000-0  97401-5 0  9995
2    45  66.6948  35.9649 0249255  58.3229 304.1917 14.33663472102302
Epoch (UTC): 27 January 2020 03:13:40
Eccentricity: 0.0249255
inclination: 66.6948°
perigee height: 601 km
apogee height: 958 km
right ascension of ascending node: 35.9649°
argument of perigee: 58.3229°
revolutions per day: 14.33663472
mean anomaly at epoch: 304.1917°
orbit number at epoch: 10230

The dashed part of the orbit path shows where the satellite is in the earth's shadow,  

DLR